Miscellaneous Local Product
Issued by NWS Hastings, NE

Home | Current Version | Previous Version | Text Only | Print | Product List | Glossary On
Versions: 1 2 3 4 5 6 7 8 9 10 11 12 13 14 15 16 17 18 19 20 21 22 23 24 25 26 27 28 29 30 31 32 33 34 35 36 37 38 39 40 41 42 43 44 45 46 47 48 49 50
000
AXUS43 KGID 042202
MISGRI

GID CWA HOURLY WEATHER ROUNDUP
NATIONAL WEATHER SERVICE HASTINGS NE
500 PM CDT FRI SEP 04 2015

NOTE: "FAIR" INDICATES FEW OR NO CLOUDS BELOW 12,000 FEET WITH NO
SIGNIFICANT WEATHER AND/OR OBSTRUCTIONS TO VISIBILITY.

...SOUTH CENTRAL NEBRASKA...

CITY           SKY/WX    TMP DP  RH WIND       PRES   REMARKS
GRAND ISLAND   PTSUNNY   95  64  35 S24G30    29.82S HX  97
HASTINGS       PTSUNNY   95  64  35 S14G22    29.81F HX  97
KEARNEY        MOSUNNY   97  63  32 S15G24    29.80F HX  98
ORD            PTSUNNY   91  64  40 S16G23    29.80F HX  92
YORK           PTSUNNY   91  68  46 S16G25    29.83F HX  95
AURORA         PTSUNNY   92  65  41 S15G24    29.82S HX  94
LEXINGTON      MOSUNNY   93  61  34 SE13      29.81F HX  93
HOLDREGE       SUNNY     95  55  26 S15G23    29.82F HX  93
HEBRON         MOSUNNY   90  61  36 S18G25    29.84F HX  90

...NEBRASKA PANHANDLE...

CITY           SKY/WX    TMP DP  RH WIND       PRES   REMARKS
CHADRON        CLOUDY    92  45  19 E3        29.80F
ALLIANCE       MOSUNNY   93  43  17 SE7       29.86F
SCOTTSBLUFF    PTSUNNY   92  41  17 E9        29.86F
SIDNEY         MOSUNNY   94  43  17 S15G23    29.90F HX  90

...WESTERN AND NORTH CENTRAL NEBRASKA...

CITY           SKY/WX    TMP DP  RH WIND       PRES   REMARKS
VALENTINE      SUNNY     93  51  23 VRB5      29.78F HX  90
AINSWORTH      SUNNY     91  61  36 SE9       29.80F HX  91
ONEILL         MOSUNNY   91  65  42 S15G23    29.81S HX  93
BROKEN BOW     SUNNY     91  63  39 S12       29.82F HX  92
IMPERIAL       SUNNY     93  46  19 SW3       29.85F
NORTH PLATTE   SUNNY     93  54  26 S10       29.82F HX  91
MCCOOK         SUNNY     97  56  25 NE7       29.81F HX  95

...EASTERN NEBRASKA...

CITY           SKY/WX    TMP DP  RH WIND       PRES   REMARKS
NORFOLK        SUNNY     91  69  48 S18       29.82S HX  96
SO SIOUX CITY  MOSUNNY   85  71  63 SE15G23   29.84S HX  90
TEKAMAH        SUNNY     88  73  61 SE14G22   29.84F HX  95
COLUMBUS       MOSUNNY   90  70  51 SE9       29.82S HX  95
ALBION         PTSUNNY   88  67  48 S13G23    29.82S HX  91
OMAHA EPPLEY   MOSUNNY   89  71  55 SE20      29.86F HX  95
OFFUTT AFB     MOSUNNY   88  71  57 SE15      29.85F HX  94
MILLARD        MOSUNNY   90  72  55 SE14      29.85F HX  97
LINCOLN        MOSUNNY   91  67  44 S21       29.84S HX  94
NEBRASKA CITY  MOSUNNY   91  57  31 S17G23    29.88S
BEATRICE       SUNNY     91  65  42 S18G25    29.85F HX  93
FALLS CITY     SUNNY     92  66  42 S16G24    29.89F HX  94

...NORTHERN KANSAS...

CITY           SKY/WX    TMP DP  RH WIND       PRES   REMARKS
GOODLAND       SUNNY     96  44  16 SW13G18   29.87F HX  92
HILL CITY      SUNNY     99  55  23 S17G25    29.81F HX  97
NORTON         CLEAR     95  50  21 S13G18    29.80S HX  92
PHILLIPSBURG   SUNNY    100  55  22 S16G24    29.80S HX  99
SMITH CENTER   SUNNY     97  61  30 S22G30    29.81F HX  97
HAYS           PTSUNNY   99  57  25 S21G31    29.82S HX  97
RUSSELL        SUNNY     97  60  29 S25G35    29.82F HX  97
CONCORDIA      MOSUNNY   94  65  38 S16G28    29.85S HX  96
SALINA         SUNNY     95  63  34 S25       29.85F HX  96
TOPEKA         SUNNY     91  67  44 S16       29.91F HX  94



USA.gov is the U.S. government's official web portal to all federal, state and local government web resources and services.